Weather in Taymylyr

Russia / Sakha (Yakutia) Republic     72°36′35″N   121°54′50″E
temp.,
°C
wind,
m/s
gust,
m/s
humid.,
%
clouds,
%
prec.,
mm/h
press.,
hPa
HPBL,
m
18 april, sun
sun1800:00−21n4410064 0.0 99738
03:00−23n3310092 0.0 99920
06:00−21nnw3610096 0.0 100169
09:00−17nw269868 0.0 1003169
12:00−14nnw479298 0.0 1005418
15:00−11nw5691100 0.1 1007592
18:00−12wnw589499 0.1 1009497
21:00−13w599581 0.3 1011289
19 april, mon
mon1900:00−13w599596 0.1 1012245
03:00−14wsw489699 0.4 1014218
06:00−15wsw379676 0.2 1015158
09:00−15sw479595 0.3 1017260
12:00−15sw589497 0.1 1018309
15:00−15sw599492 0.1 1019328
18:00−16ssw489577 0.0 1020197
21:00−21ssw3310070 0.0 102115
20 april, tue
tue2000:00−24s32100100 0.0 102213
03:00−27sse22100100 0.1 102311
06:00−27sse22100100 0.0 102310
09:00−21sse0010090 0.1 102331
12:00−17n22925 0.0 1022101
15:00−14n239123 0.0 1021133
18:00−15n2393100 0.0 102141
21:00−16nne2394100 0.0 102037
21 april, wed
wed2100:00−15n3497100 0.2 1019123
03:00−15n3596100 0.9 1019186
06:00−15n4696100 0.8 1019216
09:00−14nnw4594100 1.4 1019244
12:00−13nnw4592100 0.6 1019334
15:00−12nw5591100 0.9 1020423
18:00−13wnw4594100 0.3 1021387
21:00−14w3696100 0.4 1022153
22 april, thu
thu2200:00−17wsw2498100 0.1 102379
03:00−19sw2299100 0.1 102421
06:00−19ssw2499100 0.1 102588
09:00−17ssw359689 0.1 1025194
12:00−14sw569197 0.1 1025367
15:00−14ssw479197 0.1 1025300
18:00−15ssw379498 0.0 1025167
21:00−18s459820 0.0 102550